Goodland, KS

5:24 AM MDT on April 30, 2017 (GMT -0600)
Renner-Goodland Municipal

Weather History for KGLD - October, 2012

Change the Weather History Date:

Sunday, October 28, 2012

  Actual Average Record
Temperature  
Mean Temperature 50 °F 47 °F  
Max Temperature 64 °F 62 °F 86 °F (1943)
Min Temperature 36 °F 33 °F 10 °F (1925)
Degree Days  
Heating Degree Days 15 18  
Month to date heating degree days 433 359  
Since 1 July heating degree days 509 483  
Cooling Degree Days 0 0  
Month to date cooling degree days 2 5  
Year to date cooling degree days 1338 938  
Growing Degree Days 2 (Base 50)    
Moisture  
Dew Point 24 °F    
Average Humidity 45    
Maximum Humidity 70    
Minimum Humidity 20    
Precipitation  
Precipitation 0.00 in 0.04 in 1.99 in (2000)
Month to date precipitation 0.41 1.27  
Year to date precipitation 9.02 18.39  
Snow  
Snow 0.00 in 0.10 in - ()
Month to date snowfall 0.5 1.9  
Since 1 July snowfall 0.5 2.3  
Since 1 September snowfall 0.5 2.3  
Snow Depth 0.00 in    
Sea Level Pressure  
Sea Level Pressure 30.09 in    
Wind  
Wind Speed 12 mph (SW)    
Max Wind Speed 26 mph    
Max Gust Speed 33 mph    
Visibility 10 miles    
Events      
T = Trace of Precipitation, MM = Missing Value Source: NWS Daily Summary

Daily Weather History Graph

Daily Weather History Graph

Search for Another Location

Airport or City:

Trip Planner

Search our weather history database for the weather conditions in past years. The results will help you decide how hot, cold, wet, or windy it might be!

Date:

Astronomy

Oct. 28, 2012 Rise Set
Actual Time 7:10 AM MDT 5:49 PM MDT
Civil Twilight 6:43 AM MDT 6:17 PM MDT
Nautical Twilight 6:11 AM MDT 6:48 PM MDT
Astronomical Twilight 5:40 AM MDT 7:19 PM MDT
Moon 5:08 PM MDT (10/28) 6:06 AM MDT (10/28)
Length of Visible Light 11h 33m
Length of Day
10h 38m
Waxing Gibbous, 99% of the Moon is Illuminated
Oct 28
Waxing Gibbous
Oct 29
Full
Nov 6
Last Quarter
Nov 13
New
Nov 20
First Quarter

Hourly Weather History & Observations

Time (MDT) Temp. Windchill Dew Point Humidity Pressure Visibility Wind Dir Wind Speed Gust Speed Precip Events Conditions
12:53 AM 37.0 °F 30.4 °F 26.1 °F 65% 30.20 in 10.0 mi WSW 9.2 mph - N/A   Overcast
1:53 AM 36.0 °F 30.3 °F 26.1 °F 67% 30.17 in 10.0 mi SW 6.9 mph - N/A   Overcast
2:53 AM 37.0 °F 29.8 °F 27.0 °F 67% 30.17 in 10.0 mi WSW 10.4 mph - N/A   Overcast
3:53 AM 37.9 °F 30.9 °F 28.0 °F 68% 30.14 in 10.0 mi SW 10.4 mph - N/A   Overcast
4:53 AM 39.9 °F 33.4 °F 25.0 °F 55% 30.15 in 10.0 mi SW 10.4 mph - N/A   Overcast
5:53 AM 42.1 °F 35.2 °F 24.1 °F 49% 30.16 in 10.0 mi SW 12.7 mph - N/A   Overcast
6:53 AM 42.1 °F 34.9 °F 23.0 °F 47% 30.18 in 10.0 mi SW 13.8 mph - N/A   Overcast
7:53 AM 43.0 °F 38.2 °F 24.1 °F 47% 30.21 in 10.0 mi SW 8.1 mph - N/A   Overcast
8:53 AM 45.0 °F 39.3 °F 24.1 °F 44% 30.19 in 10.0 mi SW 11.5 mph - N/A   Overcast
9:53 AM 48.9 °F - 25.0 °F 39% 30.17 in 10.0 mi SSW 11.5 mph - N/A   Overcast
10:53 AM 53.6 °F - 21.2 °F 28% 30.13 in 10.0 mi South 19.6 mph - N/A   Overcast
11:53 AM 59.0 °F - 19.0 °F 21% 30.08 in 10.0 mi SSW 24.2 mph 33.4 mph N/A   Mostly Cloudy
12:53 PM 61.0 °F - 19.9 °F 21% 30.05 in 10.0 mi SSW 16.1 mph 27.6 mph N/A   Overcast
1:53 PM 59.0 °F - 21.9 °F 24% 30.03 in 10.0 mi SSW 15.0 mph 25.3 mph N/A   Clear
2:53 PM 61.0 °F - 24.1 °F 24% 30.00 in 10.0 mi SW 18.4 mph 25.3 mph N/A   Clear
3:53 PM 64.0 °F - 23.0 °F 21% 29.98 in 10.0 mi SSW 13.8 mph - N/A   Clear
4:53 PM 62.1 °F - 24.1 °F 23% 29.98 in 10.0 mi SSW 9.2 mph - N/A   Clear
5:53 PM 52.0 °F - 25.0 °F 35% 30.02 in 10.0 mi SW 5.8 mph - N/A   Scattered Clouds
6:53 PM 51.1 °F - 26.1 °F 38% 30.03 in 10.0 mi SSW 5.8 mph - N/A   Clear
7:53 PM 50.0 °F - 26.1 °F 39% 30.04 in 10.0 mi SSW 9.2 mph - N/A   Mostly Cloudy
8:53 PM 53.1 °F - 25.0 °F 34% 30.05 in 10.0 mi SSW 12.7 mph - N/A   Overcast
9:53 PM 48.9 °F - 25.0 °F 39% 30.06 in 10.0 mi SSW 10.4 mph - N/A   Clear
10:53 PM 46.9 °F - 25.0 °F 42% 30.05 in 10.0 mi SW 12.7 mph - N/A   Partly Cloudy
11:53 PM 46.0 °F 40.2 °F 24.1 °F 42% 30.04 in 10.0 mi SW 12.7 mph - N/A   Clear